Regional Weather Roundup
Issued by NWS Jackson, KY

Home | Current Version | Previous Version | Graphics & Text | Print | Product List | Glossary On
Versions: 1 2 3 4 5 6 7 8 9 10 11 12 13 14 15 16 17 18 19 20 21 22 23 24 25 26 27
000
ASUS43 KJKL 010410
RWRJKL

EAST KENTUCKY HOURLY WEATHER ROUNDUP
NATIONAL WEATHER SERVICE JACKSON KY
1200 AM EDT SUN MAY 01 2016

NOTE: "FAIR" INDICATES FEW OR NO CLOUDS BELOW 12,000 FEET WITH
NO SIGNIFICANT WEATHER AND/OR OBSTRUCTIONS TO VISIBILITY.

* THESE REPORTS ARE NOT UNDER NWS QUALITY CONTROL AND MAY NOT
  REPORT WEATHER SUCH AS PRECIPITATION AND FOG.

KYZ079-080-083-085-087-088-110-112-115-119-120-010500
...EASTERN KENTUCKY...

CITY           SKY/WX    TMP DP  RH WIND       PRES   REMARKS
JACKSON        RAIN      61  59  93 CALM      30.02S VSB 1
LONDON         CLOUDY    62  60  93 E6        29.95F
SOMERSET*      HVY RAIN  61  61 100 CALM      29.96S
MONTICELLO*    TSTM      65  63  93 SE7       29.96F
WILLIAMSBURG*  CLOUDY    59  59 100 SE6       29.96F
MIDDLESBORO*   HVY RAIN  61  61 100 CALM      30.00S
HARLAN APT*    CLOUDY    61  59  94 CALM      30.00F
HAZARD APT*    LGT RAIN  63  63 100 CALM      30.00F
BLACK MTN*       N/A     55  55 100 S2          N/A
PIKE CO APT*   RAIN      60  60 100 CALM      30.03S
BIG SANDY APT* HVY RAIN  61  61 100 S3        30.02F
MOREHEAD APT*  LGT RAIN  61  59  94 VRB7G15   29.98S
$$

KYZ035-036-041-042-044-050-067-078-099-010500
...CENTRAL KENTUCKY...

CITY           SKY/WX    TMP DP  RH WIND       PRES   REMARKS
MT STERLING*   RAIN      61  61 100 SW6       29.98S
FLEMING/MASON* RAIN      60  59  97 S9        29.96R
DANVILLE*      LGT RAIN  61  61 100 CALM      29.96F
RICHMOND*      CLOUDY    63  61  94 SE5       29.96F
LEXINGTON      LGT RAIN  63  60  90 S9        29.95S FOG
FRANKFORT      LGT RAIN  63  60  90 S7        29.91S
LOUISVILLE     LGT RAIN  66  63  90 SE7       29.89S
LEBANON*         N/A     63  63 100 SE7       29.94S
BOWLING GREEN  CLOUDY    67  65  93 E8        29.89F
$$

KYZ091>093-OHZ055-061-077-WVZ005-015-034-035-042-010500
...SOUTHERN OHIO/WEST VIRGINIA...

CITY           SKY/WX    TMP DP  RH WIND       PRES   REMARKS
COVINGTON      LGT RAIN  61  60  97 S10       29.91R
COLUMBUS       LGT RAIN  55  55 100 SE3       29.91F FOG
DAYTON         CLOUDY    58  57  97 S8        29.90F
WILMINGTON     LGT RAIN  58  57  97 S10       29.90F
HUNTINGTON     RAIN      61  60  97 S8        29.98F FOG
CHARLESTON     LGT RAIN  62  58  86 S7        29.99R
PINEVILLE*     DRIZZLE   59  55  84 MISG      30.10S
BECKLEY        LGT RAIN  55  53  93 SE12      30.08R
$$

VAZ002-007-008-TNZ017-027-036-066-071-010500
...SOUTHWEST VIRGINIA/EAST TENNESSEE...

CITY           SKY/WX    TMP DP  RH WIND       PRES   REMARKS
WISE*          RAIN      61  59  94 S5        30.06F
BRISTOL        LGT RAIN  61  60  97 NE5       30.03F FOG
SEVIERVILLE*   MOCLDY    63  61  94 CALM      29.98F
KNOXVILLE      CLOUDY    63  62  97 NE7       29.96F
OAK RIDGE      CLOUDY    64  62  93 CALM      29.99F
CROSSVILLE     MOCLDY    66  61  84 SE5       29.97F
NASHVILLE      CLOUDY    67  64  90 SE3       29.90S
$$

...KEY TO REMARKS...
VSB - VISIBILITY IN MILES
WCI - WIND CHILL INDEX
HX  - HEAT INDEX

$$




USA.gov is the U.S. government's official web portal to all federal, state and local government web resources and services.